period_start,C,m1,H,J0,J1,J2,J3,J4,J5,JA,JB,JC,JD,JJ,JK,JN,#
2014-08-15 00:01:08,0.02,0.12,0.00,27.44,31.80,34.04,9.33,40.14,1001.97,2018.99,3380.03,3268.22,3536.56,500.46,482.68,9.99,0000 0000 0000 0000 000000
2014-08-15 00:06:09,0.01,0.12,0.00,27.44,31.81,34.04,9.35,40.15,1001.97,2018.99,3379.97,3268.03,3536.05,500.01,482.35,10.04,0000 0000 0000 0000 000000
2014-08-15 00:11:10,0.00,0.12,0.00,27.41,31.82,34.05,9.29,40.10,1001.93,2018.99,3379.98,3268.00,3536.00,499.70,482.14,10.08,0000 0000 0000 0000 000000
2014-08-15 00:16:11,0.01,0.12,0.00,27.37,31.82,34.06,9.32,39.96,1001.66,2018.99,3379.54,3268.00,3535.99,500.00,482.21,10.12,0000 0000 0000 0000 000000
2014-08-15 00:21:13,0.00,0.12,0.00,27.32,31.82,34.07,9.33,40.00,1001.51,2019.00,3379.11,3267.99,3535.93,499.85,482.00,10.16,0000 0000 0000 0000 000000
2014-08-15 00:26:14,0.03,0.12,0.00,27.31,31.82,34.07,9.26,40.06,1001.49,2019.03,3378.56,3267.98,3535.35,499.78,482.10,10.20,0000 0000 0000 0000 000000
2014-08-15 00:31:15,0.01,0.12,0.00,27.31,31.82,34.06,9.35,40.09,1001.48,2019.05,3378.09,3267.84,3535.04,500.09,482.26,10.24,0000 0000 0000 0000 000000
2014-08-15 00:36:17,0.02,0.12,0.00,27.34,31.82,34.06,9.43,39.93,1001.48,2019.09,3377.99,3267.37,3535.00,500.71,482.96,10.29,0000 0000 0000 0000 000000
2014-08-15 00:41:18,0.01,0.12,0.00,27.36,31.82,34.06,9.33,40.04,1001.47,2019.13,3377.93,3267.08,3534.98,499.86,481.93,10.33,0000 0000 0000 0000 000000
2014-08-15 00:46:19,0.02,0.12,0.00,27.37,31.82,34.05,9.36,40.27,1001.28,2019.26,3377.84,3267.03,3534.89,500.18,482.24,10.37,0000 0000 0000 0000 000000
2014-08-15 00:51:20,0.03,0.13,0.00,27.37,31.82,34.04,9.35,40.13,1001.05,2019.39,3377.37,3267.01,3534.46,499.77,481.77,10.41,0000 0000 0000 0000 000000
2014-08-15 00:56:21,-0.00,0.13,0.00,27.42,31.82,34.05,9.36,40.14,1001.00,2019.22,3377.13,3267.00,3534.08,499.80,481.80,10.45,0000 0000 0000 0000 000000
2014-08-15 01:01:23,-0.01,0.13,0.00,27.45,31.82,34.05,9.23,40.18,1000.99,2019.10,3377.00,3266.94,3533.99,499.63,481.42,10.50,0000 0000 0000 0000 000000
2014-08-15 01:06:24,0.00,0.13,0.00,27.47,31.82,34.04,9.29,40.12,1000.99,2019.08,3376.99,3266.79,3533.98,500.10,481.66,10.54,0000 0000 0000 0000 000000
2014-08-15 01:11:25,0.02,0.13,0.00,27.48,31.83,34.04,9.29,40.15,1000.99,2019.08,3376.92,3266.33,3533.85,499.80,481.61,10.58,0000 0000 0000 0000 000000
2014-08-15 01:16:26,0.03,0.13,0.00,27.52,31.85,34.05,9.29,40.18,1000.98,2019.07,3376.47,3266.04,3533.26,499.45,481.16,10.62,0000 0000 0000 0000 000000
2014-08-15 01:21:28,0.01,0.13,0.00,27.55,31.85,34.07,9.34,40.27,1000.85,2019.06,3376.02,3266.00,3533.00,500.07,481.76,10.66,0000 0000 0000 0000 000000
2014-08-15 01:26:29,0.01,0.13,0.00,27.58,31.85,34.08,9.27,40.30,1000.53,2019.07,3375.85,3265.96,3532.87,499.67,481.03,10.71,0000 0000 0000 0000 000000
2014-08-15 01:31:30,0.04,0.13,0.00,27.60,31.87,34.07,9.31,40.44,1000.50,2019.01,3375.18,3265.33,3532.17,499.63,480.91,10.75,0000 0000 0000 0000 000000
2014-08-15 01:36:31,0.00,0.13,0.00,27.62,31.87,34.09,9.32,40.48,1000.50,2019.01,3374.95,3265.00,3531.97,500.25,481.54,10.79,0000 0000 0000 0000 000000
2014-08-15 01:41:32,0.03,0.13,0.00,27.64,31.89,34.11,9.26,40.19,1000.50,2019.00,3374.37,3264.92,3531.40,500.06,481.26,10.83,0000 0000 0000 0000 000000
2014-08-15 01:46:33,0.02,0.13,0.00,27.67,31.90,34.11,9.26,40.18,1000.50,2019.00,3374.01,3264.36,3531.02,500.05,481.35,10.87,0000 0000 0000 0000 000000
2014-08-15 01:51:35,0.01,0.13,0.00,27.68,31.91,34.13,9.28,40.28,1000.50,2019.00,3373.68,3264.01,3530.81,500.38,481.60,10.91,0000 0000 0000 0000 000000
2014-08-15 01:56:36,0.02,0.13,0.00,27.69,31.92,34.16,9.28,40.24,1000.47,2018.99,3373.05,3263.96,3530.09,499.87,481.11,10.96,0000 0000 0000 0000 000000
2014-08-15 02:01:36,0.00,0.14,0.00,27.71,31.93,34.17,9.29,40.22,1000.25,2018.99,3372.99,3263.70,3530.00,500.24,481.32,11.00,0000 0000 0000 0000 000000
2014-08-15 02:06:37,0.04,0.14,0.00,27.73,31.95,34.18,9.23,40.48,1000.06,2018.99,3372.37,3263.11,3529.74,499.27,480.28,11.04,0000 0000 0000 0000 000000
2014-08-15 02:11:39,0.01,0.14,0.00,27.74,31.95,34.19,9.30,40.40,1000.02,2018.99,3372.01,3263.00,3529.06,500.27,481.08,11.08,0000 0000 0000 0000 000000
2014-08-15 02:16:40,-0.00,0.14,0.00,27.78,31.97,34.20,9.30,40.29,1000.01,2018.94,3371.86,3262.91,3528.96,500.47,481.20,11.12,0000 0000 0000 0000 000000
2014-08-15 02:21:41,0.04,0.14,0.00,27.79,31.98,34.21,9.29,40.34,1000.01,2018.88,3371.17,3262.33,3528.34,499.88,480.75,11.16,0000 0000 0000 0000 000000
2014-08-15 02:26:42,0.01,0.14,0.00,27.82,32.00,34.22,9.27,40.24,1000.01,2018.92,3370.99,3262.01,3528.01,500.16,480.88,11.21,0000 0000 0000 0000 000000
2014-08-15 02:31:43,-0.01,0.14,0.00,27.82,32.01,34.24,9.29,40.38,999.98,2018.80,3370.79,3262.00,3527.96,500.07,480.84,11.25,0000 0000 0000 0000 000000
2014-08-15 02:36:45,-0.00,0.14,0.00,27.85,32.02,34.25,9.26,40.38,999.92,2018.49,3370.08,3261.74,3527.35,500.15,480.70,11.29,0000 0000 0000 0000 000000
2014-08-15 02:41:46,-0.01,0.14,0.00,27.86,32.05,34.27,9.23,40.33,999.80,2018.15,3369.93,3261.10,3527.00,499.60,480.24,11.33,0000 0000 0000 0000 000000
2014-08-15 02:46:47,0.02,0.14,0.00,27.87,32.05,34.29,9.27,40.39,999.60,2018.06,3369.27,3260.99,3526.58,499.80,480.46,11.37,0000 0000 0000 0000 000000
2014-08-15 02:51:48,0.01,0.14,0.00,27.90,32.07,34.30,9.29,40.33,999.54,2018.03,3369.00,3260.82,3526.04,499.48,480.19,11.42,0000 0000 0000 0000 000000
2014-08-15 02:56:49,0.02,0.14,0.00,27.92,32.08,34.31,9.27,40.40,999.54,2018.01,3368.66,3260.19,3525.97,499.69,480.08,11.46,0000 0000 0000 0000 000000
2014-08-15 03:01:50,0.02,0.14,0.00,27.94,32.10,34.33,9.21,40.51,999.54,2018.00,3368.03,3260.01,3525.35,500.11,480.24,11.50,0000 0000 0000 0000 000000
2014-08-15 03:06:51,0.00,0.14,0.00,27.97,32.12,34.34,9.27,40.33,999.53,2018.01,3367.88,3259.99,3525.02,499.81,480.11,11.54,0000 0000 0000 0000 000000
2014-08-15 03:11:52,0.02,0.14,0.00,27.98,32.12,34.35,9.28,40.57,999.53,2018.00,3367.18,3259.75,3524.99,500.11,480.59,11.58,0000 0000 0000 0000 000000
2014-08-15 03:16:53,0.03,0.14,0.00,28.00,32.15,34.37,9.30,40.46,999.53,2018.00,3367.01,3259.13,3524.53,500.39,480.49,11.62,0000 0000 0000 0000 000000
2014-08-15 03:21:54,0.01,0.15,0.00,28.01,32.16,34.39,9.31,40.39,999.53,2018.00,3366.69,3258.99,3524.02,500.10,480.14,11.67,0000 0000 0000 0000 000000
2014-08-15 03:26:55,0.01,0.15,0.00,28.02,32.17,34.42,9.30,40.53,999.53,2017.99,3366.04,3258.87,3523.85,499.94,480.01,11.71,0000 0000 0000 0000 000000
2014-08-15 03:31:57,0.03,0.15,0.00,27.96,32.19,34.44,9.29,40.41,999.53,2017.99,3365.98,3258.27,3523.21,499.96,480.39,11.75,0000 0000 0000 0000 000000
2014-08-15 03:36:58,0.00,0.15,0.00,27.90,32.20,34.46,9.29,40.40,999.53,2017.98,3365.81,3258.04,3523.03,500.35,480.66,11.79,0000 0000 0000 0000 000000
2014-08-15 03:41:59,0.01,0.15,0.00,27.82,32.20,34.48,9.28,40.40,999.53,2017.97,3365.18,3258.00,3523.00,500.34,480.78,11.83,0000 0000 0000 0000 000000
2014-08-15 03:47:00,0.00,0.15,0.00,27.73,32.20,34.49,9.30,40.47,999.53,2017.97,3365.01,3258.00,3522.96,499.99,480.62,11.88,0000 0000 0000 0000 000000
2014-08-15 03:52:01,0.00,0.15,0.00,27.65,32.20,34.50,9.31,40.49,999.53,2017.97,3364.99,3257.99,3522.81,500.27,481.11,11.92,0000 0000 0000 0000 000000
2014-08-15 03:57:02,0.00,0.15,0.00,27.58,32.20,34.51,9.29,40.54,999.53,2017.94,3364.83,3257.96,3522.39,499.92,480.90,11.96,0000 0000 0000 0000 000000
2014-08-15 04:02:03,0.01,0.15,0.00,27.55,32.18,34.49,9.32,40.48,999.53,2017.97,3364.78,3257.98,3522.32,500.03,481.01,12.00,0000 0000 0000 0000 000000
2014-08-15 04:07:05,0.01,0.15,0.00,27.59,32.17,34.45,9.22,40.44,999.49,2017.99,3364.49,3257.96,3522.12,499.78,480.63,12.04,0000 0000 0000 0000 000000
2014-08-15 04:12:06,0.00,0.15,0.00,27.61,32.16,34.40,9.27,40.55,999.30,2017.99,3364.26,3257.96,3522.06,499.76,480.50,12.08,0000 0000 0000 0000 000000
2014-08-15 04:17:07,0.00,0.15,0.00,27.63,32.15,34.35,9.27,40.67,999.07,2017.99,3364.11,3257.97,3522.06,499.83,480.45,12.13,0000 0000 0000 0000 000000
2014-08-15 04:22:08,0.00,0.15,0.00,27.67,32.14,34.33,9.32,40.67,999.05,2017.99,3364.13,3257.90,3522.03,500.41,480.94,12.17,0000 0000 0000 0000 000000
2014-08-15 04:27:09,0.01,0.15,0.00,27.69,32.12,34.32,9.21,40.51,999.05,2017.99,3364.00,3257.74,3522.00,499.56,480.09,12.21,0000 0000 0000 0000 000000
2014-08-15 04:32:11,0.01,0.15,0.00,27.73,32.12,34.31,9.27,40.39,999.05,2017.99,3364.00,3257.36,3521.99,499.81,480.27,12.25,0000 0000 0000 0000 000000
2014-08-15 04:37:12,0.01,0.15,0.00,27.76,32.12,34.31,9.26,40.65,999.05,2017.99,3363.97,3257.17,3521.98,500.02,480.46,12.29,0000 0000 0000 0000 000000
2014-08-15 04:42:13,0.00,0.15,0.00,27.77,32.11,34.31,9.23,40.76,999.05,2017.99,3363.89,3257.04,3521.92,500.13,480.38,12.34,0000 0000 0000 0000 000000
2014-08-15 04:47:15,0.02,0.15,0.00,27.79,32.10,34.31,9.26,40.75,999.05,2017.99,3363.47,3257.01,3521.59,500.06,480.40,12.38,0000 0000 0000 0000 000000
2014-08-15 04:52:16,0.01,0.15,0.00,27.84,32.10,34.31,9.20,40.77,999.04,2017.99,3363.04,3257.00,3521.10,499.67,479.92,12.42,0000 0000 0000 0000 000000
2014-08-15 04:57:17,0.00,0.15,0.00,27.85,32.11,34.31,9.23,40.81,999.04,2017.99,3363.00,3257.00,3521.00,499.88,480.20,12.46,0000 0000 0000 0000 000000
2014-08-15 05:02:18,0.00,0.15,0.00,27.87,32.12,34.33,9.32,40.73,999.04,2017.99,3362.99,3256.99,3521.00,500.20,480.55,12.50,0000 0000 0000 0000 000000
2014-08-15 05:07:18,0.00,0.15,0.00,27.91,32.12,34.33,9.26,40.38,999.04,2017.99,3362.81,3256.96,3520.99,500.25,480.40,12.54,0000 0000 0000 0000 000000
2014-08-15 05:12:19,0.02,0.15,0.00,27.95,32.12,34.33,9.28,40.72,999.04,2017.99,3362.29,3256.69,3520.83,499.88,479.90,12.59,0000 0000 0000 0000 000000
2014-08-15 05:17:21,0.02,0.16,0.00,27.97,32.14,34.34,9.29,40.73,999.04,2017.99,3362.02,3256.30,3520.39,500.09,480.10,12.63,0000 0000 0000 0000 000000
2014-08-15 05:22:22,0.00,0.16,0.00,28.01,32.15,34.36,9.26,40.79,999.03,2017.99,3361.97,3256.02,3520.01,499.89,479.73,12.67,0000 0000 0000 0000 000000
2014-08-15 05:27:23,0.00,0.16,0.00,28.04,32.16,34.37,9.23,40.74,998.99,2017.99,3361.78,3256.00,3520.00,499.75,479.61,12.71,0000 0000 0000 0000 000000
2014-08-15 05:32:24,0.01,0.16,0.00,28.05,32.17,34.39,9.18,40.62,998.98,2017.99,3361.26,3255.99,3519.98,499.56,479.77,12.75,0000 0000 0000 0000 000000
2014-08-15 05:37:25,0.00,0.16,0.00,28.07,32.19,34.41,9.17,40.71,998.98,2017.99,3361.07,3255.97,3519.84,499.72,479.59,12.80,0000 0000 0000 0000 000000
2014-08-15 05:42:25,0.03,0.16,0.00,28.11,32.20,34.42,9.27,40.77,998.81,2017.99,3360.99,3255.42,3519.13,500.00,479.67,12.84,0000 0000 0000 0000 000000
2014-08-15 05:47:27,0.02,0.16,0.00,28.10,32.22,34.43,9.28,40.87,998.89,2017.98,3360.66,3255.02,3519.00,500.16,479.61,12.88,0000 0000 0000 0000 000000
2014-08-15 05:52:28,0.00,0.16,0.00,28.11,32.24,34.45,9.22,40.72,999.00,2017.97,3360.20,3254.99,3518.92,499.77,479.61,12.92,0000 0000 0000 0000 000000
2014-08-15 05:57:29,0.01,0.16,0.00,28.15,32.25,34.48,9.27,40.74,999.02,2017.91,3359.99,3254.81,3518.22,500.07,479.70,12.96,0000 0000 0000 0000 000000
2014-08-15 06:02:30,0.01,0.16,0.00,28.16,32.27,34.48,9.27,40.89,999.01,2017.75,3359.74,3254.20,3518.01,499.97,479.48,13.01,0000 0000 0000 0000 000000
2014-08-15 06:07:32,-0.02,0.16,0.00,28.19,32.29,34.51,9.26,40.81,998.94,2017.47,3359.07,3254.01,3517.91,499.94,479.57,13.05,0000 0000 0000 0000 000000
2014-08-15 06:12:33,-0.01,0.16,0.00,28.20,32.30,34.52,9.28,40.67,998.73,2017.14,3358.92,3253.85,3517.21,500.25,479.81,13.09,0000 0000 0000 0000 000000
2014-08-15 06:17:33,0.03,0.16,0.00,28.24,32.32,34.55,9.24,40.59,998.77,2017.08,3358.22,3253.29,3516.99,499.94,479.49,13.13,0000 0000 0000 0000 000000
2014-08-15 06:22:34,0.01,0.16,0.00,28.25,32.34,34.56,9.16,40.73,998.78,2017.03,3357.99,3253.01,3516.51,499.55,479.11,13.17,0000 0000 0000 0000 000000
2014-08-15 06:27:35,0.01,0.16,0.00,28.26,32.36,34.59,9.16,40.73,998.86,2017.00,3357.48,3252.92,3516.02,499.51,478.95,13.21,0000 0000 0000 0000 000000
2014-08-15 06:32:37,0.02,0.16,0.00,28.27,32.37,34.60,9.19,40.56,998.97,2017.00,3357.01,3252.36,3515.91,499.92,479.55,13.26,0000 0000 0000 0000 000000
2014-08-15 06:37:37,0.02,0.16,0.00,28.28,32.40,34.63,9.28,40.66,999.01,2017.00,3356.89,3252.01,3515.16,500.07,479.54,13.30,0000 0000 0000 0000 000000
2014-08-15 06:42:38,0.02,0.17,0.00,28.30,32.41,34.64,9.24,40.88,999.01,2017.00,3356.11,3251.86,3514.98,499.63,479.26,13.34,0000 0000 0000 0000 000000
2014-08-15 06:47:39,0.03,0.17,0.00,28.31,32.43,34.65,9.19,40.88,999.03,2017.00,3355.97,3251.26,3514.46,499.80,479.21,13.38,0000 0000 0000 0000 000000
2014-08-15 06:52:41,0.02,0.17,0.00,28.37,32.45,34.68,9.24,40.61,999.04,2016.94,3355.19,3251.00,3514.02,499.96,479.35,13.42,0000 0000 0000 0000 000000
2014-08-15 06:57:42,0.02,0.17,0.00,28.39,32.47,34.69,9.28,40.81,999.04,2016.83,3354.90,3250.69,3513.48,499.79,479.25,13.46,0000 0000 0000 0000 000000
2014-08-15 07:02:43,-0.01,0.17,0.00,28.43,32.50,34.71,9.26,40.72,999.04,2016.53,3354.11,3250.05,3513.01,499.97,479.37,13.51,0000 0000 0000 0000 000000
2014-08-15 07:07:44,-0.00,0.17,0.00,28.45,32.51,34.72,9.30,40.82,999.04,2016.41,3353.99,3250.00,3512.92,500.29,479.42,13.55,0000 0000 0000 0000 000000
2014-08-15 07:12:45,0.02,0.17,0.00,28.44,32.53,34.74,9.22,40.69,999.04,2016.21,3353.53,3249.78,3512.15,499.80,479.05,13.59,0000 0000 0000 0000 000000
2014-08-15 07:17:46,0.01,0.17,0.00,28.47,32.55,34.76,9.20,40.92,999.04,2016.10,3353.01,3249.15,3511.97,499.77,479.04,13.63,0000 0000 0000 0000 000000
2014-08-15 07:22:47,0.03,0.17,0.00,28.48,32.57,34.79,9.28,40.94,999.04,2016.05,3352.27,3248.99,3511.33,499.96,479.23,13.67,0000 0000 0000 0000 000000
2014-08-15 07:27:49,0.02,0.17,0.00,28.52,32.60,34.81,9.27,40.87,999.04,2016.02,3351.91,3248.51,3510.99,499.87,479.00,13.72,0000 0000 0000 0000 000000
2014-08-15 07:32:50,0.04,0.17,0.00,28.53,32.61,34.81,9.22,40.97,999.04,2016.00,3351.12,3248.03,3510.34,499.70,478.87,13.76,0000 0000 0000 0000 000000
2014-08-15 07:37:51,0.00,0.17,0.00,28.54,32.63,34.85,9.25,40.73,999.04,2016.00,3350.91,3247.90,3509.99,500.01,479.06,13.80,0000 0000 0000 0000 000000
2014-08-15 07:42:53,0.04,0.17,0.00,28.57,32.65,34.86,9.33,40.79,999.04,2016.00,3350.18,3247.34,3509.73,500.26,479.39,13.84,0000 0000 0000 0000 000000
2014-08-15 07:47:54,0.01,0.18,0.00,28.59,32.66,34.88,9.20,40.82,999.04,2016.00,3350.00,3247.01,3509.08,500.07,479.18,13.88,0000 0000 0000 0000 000000
2014-08-15 07:52:55,0.02,0.18,0.00,28.62,32.68,34.90,9.20,40.73,999.04,2015.98,3349.60,3246.89,3508.92,499.61,478.61,13.93,0000 0000 0000 0000 000000
2014-08-15 07:57:56,0.03,0.18,0.00,28.63,32.70,34.92,9.24,40.56,999.04,2015.96,3349.02,3246.23,3508.28,500.06,478.99,13.97,0000 0000 0000 0000 000000
2014-08-15 08:02:57,0.01,0.18,0.00,28.68,32.72,34.93,9.24,40.73,999.05,2015.93,3348.86,3246.00,3508.00,500.08,478.87,14.01,0000 0000 0000 0000 000000
2014-08-15 08:07:59,0.01,0.18,0.00,28.74,32.74,34.94,9.29,41.00,999.05,2015.83,3348.25,3245.96,3507.82,500.16,479.02,14.05,0000 0000 0000 0000 000000
2014-08-15 08:13:00,0.02,0.18,0.00,28.79,32.76,34.96,9.21,40.74,999.05,2015.58,3347.87,3245.29,3507.10,499.96,478.85,14.09,0000 0000 0000 0000 000000
2014-08-15 08:18:01,-0.03,0.18,0.00,28.83,32.78,34.97,9.21,40.61,999.05,2015.21,3347.16,3245.01,3506.90,500.32,479.00,14.13,0000 0000 0000 0000 000000
2014-08-15 08:23:03,0.01,0.18,0.00,28.86,32.80,35.00,9.16,40.63,999.05,2015.04,3346.99,3244.90,3506.18,499.72,478.44,14.18,0000 0000 0000 0000 000000
2014-08-15 08:28:04,0.03,0.18,0.00,28.88,32.82,35.02,9.20,40.76,999.05,2015.04,3346.45,3244.26,3505.99,499.82,478.57,14.22,0000 0000 0000 0000 000000
2014-08-15 08:33:05,0.02,0.18,0.00,28.92,32.85,35.05,9.15,40.78,999.04,2015.00,3345.99,3244.00,3505.54,499.75,478.36,14.26,0000 0000 0000 0000 000000
2014-08-15 08:38:06,0.03,0.18,0.00,28.96,32.88,35.08,9.16,40.76,999.04,2015.00,3345.47,3243.75,3505.01,499.66,478.24,14.30,0000 0000 0000 0000 000000
2014-08-15 08:43:07,0.02,0.18,0.00,28.98,32.90,35.09,9.25,40.83,999.05,2014.99,3345.00,3243.08,3504.80,500.26,478.43,14.34,0000 0000 0000 0000 000000
2014-08-15 08:48:08,0.02,0.18,0.00,29.02,32.93,35.13,9.20,40.76,999.07,2014.96,3344.54,3242.99,3504.11,499.93,478.49,14.39,0000 0000 0000 0000 000000
2014-08-15 08:53:09,-0.02,0.18,0.00,29.05,32.96,35.15,9.23,40.84,999.07,2014.65,3344.01,3242.46,3503.91,500.17,478.54,14.43,0000 0000 0000 0000 000000
2014-08-15 08:58:10,-0.00,0.18,0.00,29.06,32.97,35.19,9.21,40.95,999.14,2014.26,3343.65,3242.02,3503.21,499.86,478.36,14.47,0000 0000 0000 0000 000000
2014-08-15 09:03:12,-0.00,0.18,0.00,29.10,33.00,35.20,9.24,41.25,999.37,2014.15,3343.07,3241.98,3503.01,499.98,478.23,14.51,0000 0000 0000 0000 000000
2014-08-15 09:08:13,0.02,0.18,0.00,29.13,33.02,35.23,9.20,41.01,999.43,2014.03,3342.93,3241.53,3502.65,499.83,478.37,14.55,0000 0000 0000 0000 000000
2014-08-15 09:13:13,0.02,0.19,0.00,29.16,33.05,35.25,9.21,40.98,999.47,2014.00,3342.31,3241.03,3502.02,499.89,478.48,14.59,0000 0000 0000 0000 000000
2014-08-15 09:18:14,0.00,0.19,0.00,29.18,33.07,35.28,9.17,41.08,999.52,2014.00,3341.97,3240.99,3501.91,499.32,477.72,14.64,0000 0000 0000 0000 000000
2014-08-15 09:23:15,0.05,0.19,0.00,29.22,33.10,35.30,9.24,40.83,999.53,2014.00,3341.18,3240.32,3501.11,500.00,478.24,14.68,0000 0000 0000 0000 000000
2014-08-15 09:28:17,0.00,0.19,0.00,29.25,33.12,35.33,9.21,40.81,999.53,2013.99,3340.97,3240.02,3500.95,499.94,478.21,14.72,0000 0000 0000 0000 000000
2014-08-15 09:33:18,0.02,0.19,0.00,29.27,33.15,35.34,9.21,40.72,999.53,2013.96,3340.39,3239.94,3500.32,500.00,478.14,14.76,0000 0000 0000 0000 000000
2014-08-15 09:38:19,0.02,0.19,0.00,29.29,33.17,35.37,9.19,40.74,999.53,2013.92,3340.03,3239.49,3500.00,499.77,478.07,14.80,0000 0000 0000 0000 000000
2014-08-15 09:43:20,-0.03,0.19,0.00,29.31,33.20,35.40,9.32,40.92,999.53,2013.55,3339.77,3239.03,3499.74,500.47,478.69,14.85,0000 0000 0000 0000 000000
2014-08-15 09:48:22,0.01,0.19,0.00,29.36,33.22,35.42,9.24,40.71,999.53,2013.20,3339.05,3238.92,3499.05,500.02,478.09,14.89,0000 0000 0000 0000 000000
2014-08-15 09:53:23,0.00,0.19,0.00,29.39,33.24,35.44,9.15,40.67,999.53,2013.09,3338.99,3238.34,3498.97,499.54,477.61,14.93,0000 0000 0000 0000 000000
2014-08-15 09:58:24,0.03,0.19,0.00,29.40,33.27,35.48,9.18,40.63,999.53,2013.02,3338.44,3238.01,3498.34,499.88,478.09,14.97,0000 0000 0000 0000 000000
2014-08-15 10:03:25,0.00,0.19,0.00,29.41,33.30,35.50,9.21,40.44,999.53,2013.00,3338.02,3237.98,3498.01,500.14,478.05,15.01,0000 0000 0000 0000 000000
2014-08-15 10:08:27,0.04,0.19,0.00,29.43,33.32,35.53,9.18,40.59,999.53,2013.00,3337.76,3237.37,3497.67,499.69,477.57,15.06,0000 0000 0000 0000 000000
2014-08-15 10:13:27,0.02,0.19,0.00,29.46,33.34,35.55,9.25,40.47,999.53,2012.99,3337.04,3237.00,3497.03,500.33,478.17,15.10,0000 0000 0000 0000 000000
2014-08-15 10:18:29,0.00,0.19,0.00,29.48,33.36,35.57,9.27,40.54,999.54,2012.95,3336.89,3236.87,3496.90,500.05,477.84,15.14,0000 0000 0000 0000 000000
2014-08-15 10:23:30,0.03,0.20,0.00,29.51,33.39,35.59,9.15,40.62,999.54,2012.84,3336.16,3236.19,3496.18,499.78,477.66,15.18,0000 0000 0000 0000 000000
2014-08-15 10:28:31,-0.04,0.20,0.00,29.56,33.41,35.62,9.24,40.63,999.54,2012.51,3335.98,3236.00,3495.99,500.23,477.89,15.22,0000 0000 0000 0000 000000
2014-08-15 10:33:33,0.04,0.20,0.00,29.57,33.44,35.65,9.24,40.75,999.55,2012.26,3335.18,3235.47,3495.32,500.34,478.00,15.26,0000 0000 0000 0000 000000
2014-08-15 10:38:34,0.05,0.20,0.00,29.57,33.46,35.68,9.13,40.52,999.57,2012.03,3334.04,3234.50,3494.27,499.55,477.57,15.31,0000 0000 0000 0000 000000
2014-08-15 10:43:35,0.03,0.20,0.00,29.62,33.49,35.71,9.20,40.04,999.59,2012.00,3333.29,3233.96,3493.28,499.71,477.66,15.35,0000 0000 0000 0000 000000
2014-08-15 10:48:36,0.02,0.20,0.00,29.65,33.51,35.74,9.20,39.95,999.74,2012.00,3333.01,3233.57,3493.01,500.24,477.92,15.39,0000 0000 0000 0000 000000
2014-08-15 10:53:37,0.02,0.20,0.00,29.70,33.54,35.76,9.22,39.92,999.93,2011.99,3332.84,3233.03,3492.77,499.67,477.67,15.43,0000 0000 0000 0000 000000
2014-08-15 10:58:38,0.02,0.20,0.00,29.74,33.56,35.79,9.16,39.85,1000.00,2011.98,3332.11,3232.96,3492.08,499.68,477.35,15.47,0000 0000 0000 0000 000000
2014-08-15 11:03:39,0.03,0.20,0.00,29.78,33.59,35.82,9.27,40.03,1000.01,2011.93,3331.67,3232.27,3491.83,500.36,477.90,15.51,0000 0000 0000 0000 000000
2014-08-15 11:08:40,-0.01,0.20,0.00,29.84,33.62,35.84,9.23,40.14,1000.01,2011.68,3330.87,3231.91,3491.04,500.17,477.61,15.56,0000 0000 0000 0000 000000
2014-08-15 11:13:41,-0.00,0.20,0.00,29.89,33.64,35.86,9.24,40.03,1000.03,2011.25,3330.12,3231.27,3490.77,500.67,478.07,15.60,0000 0000 0000 0000 000000
2014-08-15 11:18:42,0.00,0.20,0.00,29.86,33.66,35.88,9.13,40.26,1000.02,2011.06,3329.99,3231.01,3490.12,499.72,477.18,15.64,0000 0000 0000 0000 000000
2014-08-15 11:23:44,0.02,0.20,0.00,29.80,33.68,35.90,9.19,39.98,1000.02,2011.02,3329.39,3230.84,3489.93,499.68,477.38,15.68,0000 0000 0000 0000 000000
2014-08-15 11:28:44,0.04,0.21,0.00,29.75,33.70,35.92,9.22,40.16,1000.04,2011.00,3329.00,3230.14,3489.23,499.70,477.30,15.72,0000 0000 0000 0000 000000
2014-08-15 11:33:45,0.03,0.21,0.00,29.70,33.71,35.94,9.26,40.32,1000.16,2011.00,3328.25,3229.82,3488.79,500.37,478.19,15.77,0000 0000 0000 0000 000000
2014-08-15 11:38:47,0.11,0.21,0.00,29.66,33.72,35.96,9.18,40.15,1000.34,2010.99,3326.01,3228.55,3487.41,499.75,477.85,15.81,0000 0000 0000 0000 000000
2014-08-15 11:43:48,0.05,0.21,0.00,29.63,33.74,35.98,9.27,40.36,1000.42,2010.95,3324.81,3227.82,3486.58,500.42,478.58,15.85,0000 0000 0000 0000 000000
2014-08-15 11:48:49,0.10,0.22,0.00,29.59,33.75,35.99,9.22,40.19,1000.49,2010.86,3323.19,3226.50,3485.15,500.24,478.35,15.89,0000 0000 0000 0000 000000
2014-08-15 11:53:50,0.14,0.22,0.00,29.55,33.75,36.02,9.19,40.13,1000.50,2010.54,3320.29,3224.21,3482.60,500.04,478.41,15.93,0000 0000 0000 0000 000000
2014-08-15 11:58:51,0.13,0.23,0.00,29.52,33.75,36.02,9.22,40.31,1000.50,2010.34,3317.64,3221.98,3480.28,499.95,478.25,15.97,0000 0000 0000 0000 000000
2014-08-15 12:03:53,0.14,0.23,0.00,29.51,33.77,36.00,9.21,40.13,1000.51,2010.24,3315.15,3219.94,3478.00,499.95,478.26,16.02,0000 0000 0000 0000 000000
2014-08-15 12:08:54,0.17,0.24,0.00,29.48,33.77,36.01,9.26,40.16,1000.50,2010.19,3311.92,3217.45,3475.23,500.25,478.38,16.06,0000 0000 0000 0000 000000
2014-08-15 12:13:55,0.16,0.25,0.00,29.45,33.77,36.00,9.23,40.09,1000.50,2010.19,3309.25,3215.31,3472.93,499.58,478.09,16.10,0000 0000 0000 0000 000000
2014-08-15 12:18:56,0.16,0.25,0.00,29.44,33.77,36.02,9.26,40.07,1000.51,2010.10,3306.45,3212.79,3470.23,500.08,478.50,16.14,0000 0000 0000 0000 000000
2014-08-15 12:23:57,0.24,0.26,0.00,29.41,33.77,36.00,9.26,40.23,1000.51,2010.07,3302.47,3209.69,3466.85,499.91,478.57,16.18,0000 0000 0000 0000 000000
2014-08-15 12:28:58,0.23,0.27,0.00,29.38,33.77,36.00,9.22,39.99,1000.50,2010.06,3298.19,3206.48,3463.37,500.36,478.82,16.23,0000 0000 0000 0000 000000
2014-08-15 12:33:59,0.16,0.28,0.00,29.34,33.75,36.00,9.21,40.06,1000.51,2010.04,3295.04,3204.00,3460.65,499.70,478.34,16.27,0000 0000 0000 0000 000000
2014-08-15 12:39:01,0.16,0.29,0.00,29.33,33.75,36.00,9.17,39.92,1000.52,2010.04,3292.29,3201.82,3458.35,499.64,478.26,16.31,0000 0000 0000 0000 000000
2014-08-15 12:44:02,0.13,0.30,0.00,29.32,33.75,35.98,9.25,39.93,1000.52,2010.04,3289.86,3199.92,3456.26,499.82,478.49,16.35,0000 0000 0000 0000 000000
2014-08-15 12:49:03,0.10,0.30,0.00,29.29,33.75,35.97,9.21,39.95,1000.55,2010.03,3287.96,3198.46,3454.65,500.02,478.71,16.39,0000 0000 0000 0000 000000
2014-08-15 12:54:05,0.16,0.30,0.00,29.26,33.74,35.97,9.24,40.04,1000.56,2010.03,3285.32,3196.59,3452.72,499.84,478.59,16.44,0000 0000 0000 0000 000000
2014-08-15 12:59:06,0.19,0.31,0.00,29.25,33.73,35.96,9.21,39.91,1000.59,2010.06,3281.66,3194.21,3450.15,500.30,478.97,16.48,0000 0000 0000 0000 000000
2014-08-15 13:04:07,0.10,0.32,0.00,29.23,33.72,35.95,9.22,39.98,1000.69,2010.03,3279.41,3192.53,3448.40,500.32,479.18,16.52,0000 0000 0000 0000 000000